Date String (YYYY-MM-DD hh:mm:ss) UTC,Instrument flags,Ambient pressure (hPa),Sample flow (lpm),Bypass flow (lpm),Sample temperature (°C),Ambient temperature (°C),ASC tube jacket temperature (°C),LED temperature (°C),Box temperature (°C),Sample RH (%),Span deviation,Mass concentration (μg/m³),Mass concentration (μg/m³),Mass concentration (μg/m³)
DateTimeUTC,F1_M11,P_M11,Q1_M11,Q2_M11,T1_M11,T2_M11,T3_M11,T4_M11,T5_M11,U1_M11,ZSPAN_M11,X0_M11,X2_M11,X1_M11
2022-09-16 18:00:00,,0825.4,5.00,0.00,30.0,28.7,00.0,38.6,31.9,26.0,0000.0,0012.12,0004.39,0003.87
2022-09-16 18:01:00,,0825.3,5.01,0.00,30.0,28.8,00.0,38.6,31.9,25.5,0000.0,0012.39,0004.43,0003.85
2022-09-16 18:02:00,,0825.3,5.00,0.00,30.0,28.9,00.0,38.6,32.0,25.4,0000.0,0012.59,0004.43,0003.84
2022-09-16 18:03:00,,0825.4,5.00,0.00,30.1,29.0,00.0,38.6,32.0,25.3,0000.0,0012.86,0004.44,0003.84
2022-09-16 18:04:00,,0825.3,5.01,0.00,30.1,28.3,00.0,38.7,32.0,25.5,0000.0,0013.55,0004.43,0003.83
2022-09-16 18:05:00,,0825.3,5.01,0.00,30.1,27.1,00.0,38.6,31.9,25.3,0000.0,0013.45,0004.44,0003.82
2022-09-16 18:06:00,,0825.3,5.00,0.00,30.0,26.6,00.0,38.6,31.8,25.4,0000.0,0012.86,0004.43,0003.81
2022-09-16 18:07:00,,0825.3,4.99,0.00,30.0,26.8,00.0,38.6,31.7,26.1,0000.0,0012.54,0004.46,0003.82
2022-09-16 18:08:00,,0825.3,4.99,0.00,29.9,27.2,00.0,38.5,31.5,26.2,0000.0,0012.31,0004.49,0003.83
2022-09-16 18:09:00,,0825.2,5.00,0.00,29.8,27.5,00.0,38.5,31.6,25.9,0000.0,0012.68,0004.48,0003.82
2022-09-16 18:10:00,,0825.3,4.99,0.00,29.8,27.8,00.0,38.5,31.6,25.4,0000.0,0012.91,0004.51,0003.82
2022-09-16 18:11:00,,0825.3,5.00,0.00,29.9,28.0,00.0,38.5,31.7,25.7,0000.0,0012.27,0004.50,0003.82
2022-09-16 18:12:00,,0825.2,5.01,0.00,29.9,28.2,00.0,38.5,31.7,25.7,0000.0,0012.12,0004.50,0003.82
2022-09-16 18:13:00,,0825.2,4.98,0.00,29.9,28.4,00.0,38.5,31.8,25.8,0000.0,0012.67,0004.49,0003.84
2022-09-16 18:14:00,,0825.2,5.01,0.00,29.9,28.6,00.0,38.5,31.8,25.9,0000.0,0013.23,0004.50,0003.84
2022-09-16 18:15:00,,0825.2,4.99,0.00,29.9,28.7,00.0,38.6,31.9,26.0,0000.0,0013.01,0004.52,0003.84
2022-09-16 18:16:00,,0825.2,5.02,0.00,30.0,28.8,00.0,38.6,31.9,25.7,0000.0,0013.33,0004.52,0003.84
2022-09-16 18:17:00,,0825.2,4.99,0.00,30.0,28.9,00.0,38.6,31.9,25.8,0000.0,0013.27,0004.55,0003.84
2022-09-16 18:18:00,,0825.2,5.01,0.00,30.1,28.7,00.0,38.6,32.0,25.2,0000.0,0013.17,0004.53,0003.82
2022-09-16 18:19:00,,0825.2,5.00,0.00,30.1,27.5,00.0,38.6,31.9,25.9,0000.0,0011.91,0004.44,0003.79
2022-09-16 18:20:00,,0825.1,5.00,0.00,30.0,26.7,00.0,38.6,31.9,25.8,0000.0,0011.31,0004.38,0003.78
2022-09-16 18:21:00,,0825.1,4.99,0.00,30.0,26.8,00.0,38.5,31.8,25.6,0000.0,0010.99,0004.38,0003.77
2022-09-16 18:22:00,,0825.1,5.00,0.00,29.9,27.0,00.0,38.5,31.6,25.5,0000.0,0011.21,0004.37,0003.76
2022-09-16 18:23:00,,0825.1,4.99,0.00,29.8,27.4,00.0,38.5,31.6,25.6,0000.0,0011.30,0004.36,0003.75
2022-09-16 18:24:00,,0825.1,4.99,0.00,29.8,27.7,00.0,38.5,31.6,25.9,0000.0,0010.41,0004.33,0003.73
2022-09-16 18:25:00,,0825.1,5.00,0.00,29.8,28.0,00.0,38.5,31.7,25.7,0000.0,0009.75,0004.30,0003.73
2022-09-16 18:26:00,,0825.0,5.01,0.00,29.9,28.2,00.0,38.5,31.7,25.8,0000.0,0009.03,0004.25,0003.73
2022-09-16 18:27:00,,0825.0,4.99,0.00,29.9,28.4,00.0,38.5,31.7,25.9,0000.0,0008.42,0004.18,0003.72
2022-09-16 18:28:00,,0825.0,5.01,0.00,29.9,28.6,00.0,38.5,31.7,25.8,0000.0,0008.78,0004.14,0003.70
2022-09-16 18:29:00,,0824.9,4.99,0.00,29.9,28.7,00.0,38.5,31.8,25.6,0000.0,0008.86,0004.10,0003.70
2022-09-16 18:30:00,,0824.9,5.00,0.00,30.0,28.8,00.0,38.6,31.9,25.8,0000.0,0009.05,0004.14,0003.69
2022-09-16 18:31:00,,0825.0,5.01,0.00,30.0,28.9,00.0,38.6,31.9,25.4,0000.0,0008.83,0004.17,0003.70
2022-09-16 18:32:00,,0825.0,5.00,0.00,30.0,28.9,00.0,38.6,32.0,25.1,0000.0,0008.74,0004.14,0003.68
2022-09-16 18:33:00,,0825.0,5.01,0.00,30.1,28.0,00.0,38.6,32.0,25.1,0000.0,0008.68,0004.11,0003.69
2022-09-16 18:34:00,,0825.0,5.00,0.00,30.0,26.8,00.0,38.6,31.8,25.1,0000.0,0009.06,0004.11,0003.69
2022-09-16 18:35:00,,0825.1,4.99,0.00,30.0,26.6,00.0,38.6,31.7,25.2,0000.0,0009.19,0004.17,0003.70
2022-09-16 18:36:00,,0825.1,5.00,0.00,29.9,26.8,00.0,38.5,31.6,25.2,0000.0,0010.10,0004.20,0003.69
2022-09-16 18:37:00,,0825.0,5.00,0.00,29.8,27.2,00.0,38.5,31.5,25.4,0000.0,0010.15,0004.18,0003.67
2022-09-16 18:38:00,,0825.0,5.00,0.00,29.8,27.6,00.0,38.5,31.6,25.4,0000.0,0010.25,0004.19,0003.68
2022-09-16 18:39:00,,0825.0,5.01,0.00,29.8,27.9,00.0,38.5,31.6,25.5,0000.0,0010.25,0004.20,0003.68
2022-09-16 18:40:00,,0825.0,5.00,0.00,29.8,28.1,00.0,38.5,31.7,25.6,0000.0,0011.34,0004.21,0003.68
2022-09-16 18:41:00,,0825.1,4.99,0.00,29.9,28.3,00.0,38.5,31.7,25.2,0000.0,0011.53,0004.22,0003.69
2022-09-16 18:42:00,,0825.0,5.02,0.00,29.9,28.5,00.0,38.5,31.8,25.1,0000.0,0012.17,0004.25,0003.70
2022-09-16 18:43:00,,0825.0,5.00,0.00,29.9,28.6,00.0,38.5,31.8,25.2,0000.0,0012.61,0004.25,0003.72
2022-09-16 18:44:00,,0825.1,4.99,0.00,29.9,28.8,00.0,38.5,31.9,24.8,0000.0,0012.52,0004.26,0003.71
2022-09-16 18:45:00,,0825.0,5.01,0.00,30.0,28.9,00.0,38.5,31.9,24.8,0000.0,0011.97,0004.26,0003.70
2022-09-16 18:46:00,,0825.1,4.99,0.00,30.0,28.8,00.0,38.6,32.0,24.7,0000.0,0012.16,0004.22,0003.69
2022-09-16 18:47:00,,0825.1,5.01,0.00,30.0,27.7,00.0,38.6,31.9,24.5,0000.0,0011.29,0004.20,0003.68
2022-09-16 18:48:00,,0825.1,4.99,0.00,30.0,26.7,00.0,38.5,31.8,24.4,0000.0,0011.72,0004.25,0003.69
2022-09-16 18:49:00,,0825.1,5.02,0.00,29.9,26.5,00.0,38.5,31.7,24.5,0000.0,0012.54,0004.32,0003.68
2022-09-16 18:50:00,,0825.1,5.01,0.00,29.8,26.7,00.0,38.5,31.4,24.7,0000.0,0012.66,0004.36,0003.69
2022-09-16 18:51:00,,0825.1,5.00,0.00,29.8,27.1,00.0,38.5,31.4,24.7,0000.0,0011.40,0004.36,0003.68
2022-09-16 18:52:00,,0825.0,4.99,0.00,29.8,27.4,00.0,38.4,31.5,24.8,0000.0,0011.18,0004.31,0003.67
2022-09-16 18:53:00,,0825.1,5.00,0.00,29.8,27.8,00.0,38.4,31.5,24.8,0000.0,0010.87,0004.27,0003.65
2022-09-16 18:54:00,,0825.1,4.99,0.00,29.8,28.0,00.0,38.4,31.6,25.2,0000.0,0010.93,0004.25,0003.63
2022-09-16 18:55:00,,0825.1,5.01,0.00,29.8,28.2,00.0,38.4,31.6,25.3,0000.0,0010.77,0004.28,0003.62
2022-09-16 18:56:00,,0825.1,4.99,0.00,29.8,28.4,00.0,38.4,31.7,25.0,0000.0,0010.57,0004.28,0003.62
2022-09-16 18:57:00,,0825.1,5.00,0.00,29.8,28.5,00.0,38.5,31.7,25.3,0000.0,0010.66,0004.27,0003.61
2022-09-16 18:58:00,,0825.0,4.99,0.00,29.9,28.7,00.0,38.5,31.8,25.5,0000.0,0010.50,0004.27,0003.62
2022-09-16 18:59:00,,0825.0,5.00,0.00,29.9,28.8,00.0,38.5,31.8,24.9,0000.0,0010.43,0004.26,0003.62
